Regional Weather Roundup
Issued by NWS Upton, NY

Current Version | Previous Version | Text Only | Print | Product List | Glossary On
Versions: 1 2 3 4 5 6 7 8 9 10 11 12 13 14 15 16 17 18 19 20 21 22 23 24 25 26 27
000
ASUS41 KOKX 252104
RWROKX

REGIONAL WEATHER ROUNDUP
NATIONAL WEATHER SERVICE NEW YORK NY
500 PM EDT WED MAY 25 2016

NOTE: "FAIR" INDICATES FEW OR NO CLOUDS BELOW 12,000 FEET WITH NO
SIGNIFICANT WEATHER AND/OR OBSTRUCTIONS TO VISIBILITY.

NYZ071-072-176-178-NJZ106-104-252200-
NEW YORK CITY METRO AREA


CITY           SKY/WX    TMP DP  RH WIND       PRES   REMARKS
CENTRAL PARK   SUNNY     86  44  23 VRB7      30.05S
LAGUARDIA APRT PTSUNNY   90  48  23 W12G21    30.01S
KENNEDY INTL   MOSUNNY   85  45  24 SW14      30.03F
NEWARK/LIBERTY MOSUNNY   89  40  17 SW16      30.02F
BRNX BOT. GARD   N/A     88  43  20 W14       30.02F
TETERBORO      SUNNY     88  42  20 W10       30.00S
$$

NYZ177-179-078>081-252200-
LONG ISLAND NEW YORK

CITY           SKY/WX    TMP DP  RH WIND       PRES   REMARKS
FARMINGDALE    SUNNY     84  49  29 SW14      30.03R
ISLIP          MOSUNNY   83  49  30 SW14      30.02S
SHIRLEY        SUNNY     82  51  34 SW9G18    30.04R
RIVERHEAD        N/A     86  48  26 W6        30.01S
WESTHAMPTON    NOT AVBL
EAST HAMPTON   FAIR      79  53  40 S9        30.01S
MONTAUK POINT    N/A     82  53  36 SW7       30.02S
$$

NYZ052-065-067-252200-
HUDSON VALLEY

CITY           SKY/WX    TMP DP  RH WIND       PRES   REMARKS
WHITE PLAINS   SUNNY     86  43  22 SW6       30.02S
NEWBURGH       SUNNY     86  48  26 W12G17    30.02
MONTGOMERY     SUNNY     88  47  24 W9        30.00S
POUGHKEEPSIE   SUNNY     90  45  21 SW10      29.98S
ALBANY         CLOUDY    81  53  37 W12       30.00R
$$

NJZ001-105-106-008-010-013-015-019>022-104-252200-
NEW JERSEY

CITY           SKY/WX    TMP DP  RH WIND       PRES   REMARKS
NEWARK/LIBERTY MOSUNNY   89  40  17 SW16      30.02F
TETERBORO      SUNNY     88  42  20 W10       30.00S
CALDWELL       SUNNY     89  44  20 SW5       30.02F
MORRISTOWN     SUNNY     88  45  22 W10G20    30.03S
SOMERVILLE     SUNNY     87  43  21 VRB5      30.02F
SUSSEX         SUNNY     88  41  19 VRB6      30.03S
ANDOVER          N/A     87  39  18 SW10      30.04S
TRENTON        SUNNY     86  41  20 W12       30.05F
MILLVILLE      MOSUNNY   85  49  28 W10       30.10R
ATLANTIC CITY  SUNNY     86  48  26 W14       30.08R
WRIGHTSTOWN    MOSUNNY   86  45  23 W12       30.04S
TOMS RIVER     MOSUNNY   88  41  19 W10G18    30.06S
BELMAR         SUNNY     87  46  24 W12G17    30.06F
$$

PAZ047>061-062-071-252200-
EASTERN PENNSYLVANIA

CITY           SKY/WX    TMP DP  RH WIND       PRES   REMARKS
PHILADELPHIA   PTSUNNY   87  41  19 W16       30.08F
ALLENTOWN      SUNNY     86  49  27 W15       30.05F
SCRANTON       SUNNY     86  47  25 SW9       30.05F
$$

CTZ002-004>006-009-010-012-RIZ004-006-007-MAZ004-011-015-252200-
SOUTHERN NEW ENGLAND
 IN CT

CITY           SKY/WX    TMP DP  RH WIND       PRES   REMARKS
BRADLEY INTL   MOSUNNY   88  44  21 W10       29.97S
HARTFORD       SUNNY     90  45  21 NW13G23   29.98R
DANBURY        SUNNY     86  43  22 W9        30.03S
WTRBRY/OXFORD  SUNNY     84  43  23 NW8       30.05S
BRIDGEPORT     SUNNY     85  48  27 SW13      30.01S
MERIDEN        SUNNY     88  44  21 NW8       30.00S
NEW HAVEN      SUNNY     78  49  35 SW9       30.01R
CHESTER        FAIR      84  48  28 SW7G15    30.02R
GROTON         SUNNY     80  52  37 W12       29.99S
WILLIMANTIC    SUNNY     90  42  18 NW12      29.98S

 IN RI

CITY           SKY/WX    TMP DP  RH WIND       PRES   REMARKS
PROVIDENCE     MOSUNNY   89  42  19 W14G23    29.97R
BLOCK ISLAND   SUNNY     73  53  49 SW14      30.01S
WESTERLY       SUNNY     79  49  34 SW10G20   30.00S

 IN MA

CITY           SKY/WX    TMP DP  RH WIND       PRES   REMARKS
BOSTON         MOSUNNY   88  45  22 W14G22    29.93S
WORCESTER      SUNNY     83  41  22 NW16G30   30.00S
WESTFIELD      SUNNY     88  46  23 NW10      29.98S
PROVINCETOWN   SUNNY     69  57  65 S16       29.97S
NANTUCKET      SUNNY     63  54  72 SW13      30.01S
$$

ANZ330-335-338-340-345-350-353-355-252200-
COASTAL MARINE OBSERVATIONS


STATION/POSITION TIME  SKY/WX   TEMP    WIND        PRES    VSBY  WAVE
                                AIR SEA DIR/SP/G                  HT/PER
                 (UTC)          (F)     (DEG/KT/KT) (MB)    (MI)  (FT/S)
NY HARB ENTRANCE 1950            67 63  200/ 10/ 12 1017.4          2/ 8
20S FIRE ISLAND  1950            62 58  220/ 10/ 10 1017.7          3/ 8
GREAT SOUTH BAY  2000            69 66  240/ 12/ 14   N/A
23 SSW MONTAUK P 2050            61 55  230/ 14/ 16 1016.4          3/ 7
15 E BARNEGAT LI 2022               58                N/A           3/10
HUDSON CANYON    1950            60 56              1018.6          3/ 6
KINGS POINT      2000            83 57              1016.2
EXECUTION ROCKS  NOT AVBL
CENTRAL LI SOUND 2000            66     230/ 10/ 10   N/A           1
EASTERN LI SOUND 2000            61 53  260/  8/ 12   N/A
ROBBINS REEF     2006            85     270/ 13/ 18 1016.1
$$


>>>>>>>>>>>>>>>>>>>>>>>>>>>> KEY <<<<<<<<<<<<<<<<<<<<<<<<<<<
>                                                          <
>     SKY/WX - SKY CONDITION/PRESENT WEATHER               <
>     TMP    - TEMPERATURE IN FAHRENHEIT                   <
>     DP     - DEWPOINT IN FAHRENHEIT                      <
>     RH     - RELATIVE HUMIDITY IN PERCENT                <
>     WIND   - DIRECTION AND SPEED IN MPH                  <
>     PRES   - MEAN SEA LEVEL PRESSURE IN INCHES OF HG     <
>     WCI    - WIND CHILL INDEX                            <
>     VSB    - VISIBILITY IN MILES                         <
>     HX     - HEAT INDEX                                  <
>     TC     - TEMPERATURE IN CELSIUS                      <
>     VRB    - VARIABLE WIND DIRECTION                     <
>                                                          <
>>>>>>>>>>>>>>>>>>>>>>>>>>>> KEY <<<<<<<<<<<<<<<<<<<<<<<<<<<






USA.gov is the U.S. government's official web portal to all federal, state and local government web resources and services.